Location: Eurasberg
(48.3353°N, 11.0839°E)
Time: 11:23:20
(UTC+00:00)

Cosmos 44 - Pass Details

Date: 18 January 2026
Orbit: 570 x 780 km, 65.1° (Epoch: 11 February)

Event Time Altitude Azimuth Distance (km) Brightness Sun altitude
Exits shadow 04:08:38 57° 16° (NNE) 908 3.8 -27.9°
Maximum altitude 04:09:14 62° 48° (NE) 875 3.8 -27.8°
Drops below altitude 10° 04:14:34 10° 129° (SE) 2,328 6.6 -26.9°
Sets 04:17:01 0° 133° (SE) 3,248 7.5 -26.5°
